[[{"header":{"parameterUnit":"m.s-1","parameterCategory":1,"la1":30.2991,"la2":30.254,"lo1":-89.0895,"lo2":-89.0444,"dy":0.0017,"dx":0.0017,"nx":28,"ny":28,"refTime":"2025-06-01T03:00:00:Z","depth":0,"parameterNumber":2,"parameterNumberName":"U-component_of_WINDS"},"data":[0,0,0,0,0,0,0,0,0,0,0,0,0,0,0,0,0,0,0,0,0,0,0,0,0,0,0,0,0,0,0,0,0,0,0,0,0,0,0,0,0,0,0,0,0,0,0,0,0,0,0,0,0,0,0,0,0,0,2.4906,2.4908,0,2.5064,2.5066,2.5067,2.5053,2.505,2.5048,2.5046,2.5213,2.522,2.5226,0,0,0,0,0,0,0,0,0,0,0,0,0,2.4596,2.4602,2.4906,2.4908,2.491,2.5064,2.5066,2.5068,2.5053,2.505,2.5047,2.5045,2.5211,2.5219,2.5227,0,0,0,0,0,0,0,0,0,0,0,0,0,2.474,2.4604,2.4905,2.4921,2.4924,2.5063,2.5066,2.5069,2.5054,2.505,2.5047,2.5043,2.5208,2.5218,2.5228,2.5364,0,0,2.5259,2.5263,0,0,0,0,0,0,0,0,2.4732,2.4752,2.4917,2.492,2.4924,2.5035,2.5018,2.5168,2.5055,2.5005,2.5046,2.5041,2.5157,2.5171,2.5209,2.5372,2.5379,2.526,2.5266,2.527,2.5273,0,0,0,0,0,0,0,2.4722,2.4745,2.4968,2.4919,2.4923,2.4921,2.4938,2.5046,2.51,2.5009,2.5008,2.5027,2.5158,2.5199,2.5213,2.5381,2.526,2.5269,2.5275,2.5279,2.5663,2.5667,0,0,0,0,0,0,2.4708,2.4736,2.4963,2.4973,2.4817,2.493,2.4948,2.5003,2.5099,2.5109,2.503,2.5025,2.5184,2.5201,2.5219,2.5384,2.527,2.528,2.5286,2.5659,2.5664,2.5669,0,0,0,0,0,0,2.4701,2.4728,2.4957,2.4855,2.4884,2.4939,2.5001,2.5008,2.5049,2.5114,2.5124,2.5061,2.5182,2.5205,2.5327,2.5389,2.5284,2.5293,2.5654,2.5661,2.5667,2.5715,0,0,0,0,0,0,2.4692,2.4726,2.4777,2.4856,2.4889,2.5062,2.5004,2.5014,2.5066,2.5062,2.5147,2.5157,2.5181,2.5312,2.5338,2.5401,2.5301,2.5649,2.5657,2.5665,2.5708,2.5722,2.5734,0,0,0,0,0,2.4681,2.4786,2.478,2.4807,2.4954,2.5065,2.5085,2.5108,2.5071,2.5123,2.5165,2.5155,2.5378,2.5325,2.5353,2.5421,2.5645,2.5655,2.5664,2.5702,2.5719,2.5734,0,0,0,0,0,0,2.4715,2.4796,2.479,2.4923,2.4987,2.5063,2.513,2.5125,2.5203,2.5196,2.5223,2.5242,2.5366,2.5406,2.5345,2.5558,2.5507,2.5523,2.5527,2.5544,2.5556,2.5544,2.531,0,0,0,0,0,2.4737,2.4819,2.4887,2.4997,2.503,2.5074,2.5124,2.5136,2.5204,2.5231,2.5282,2.535,2.5436,2.5492,2.5575,2.5714,2.5732,2.5774,2.5787,2.5798,2.5811,2.5887,2.5907,2.5699,2.5699,2.5699,0,0,2.4785,2.484,2.489,2.5006,2.5057,2.5142,2.5097,2.519,2.5254,2.5246,2.5365,2.5404,2.5482,2.5614,2.5674,2.5651,2.5872,2.581,2.5817,2.5825,2.5899,2.5918,2.5936,2.5706,2.5705,2.5704,0,0,2.4916,2.4966,2.5063,2.5114,2.5191,2.522,2.5243,2.532,2.5345,2.5464,2.546,2.5537,2.5684,2.5739,2.5787,2.5938,2.5931,2.5964,2.6032,2.6106,2.6123,2.6137,2.6191,2.621,2.5977,2.5977,2.5977,0,2.4967,2.5094,2.5114,2.5207,2.5258,2.5253,2.5352,2.5402,2.5503,2.5539,2.551,2.5694,2.5746,2.589,2.5927,2.5965,2.5994,2.5955,2.6118,2.6133,2.6147,2.6199,2.6219,2.5981,2.598,2.598,2.598,0,2.5152,2.524,2.531,2.5405,2.5464,2.556,2.5596,2.5653,2.566,2.5692,2.5814,2.5876,2.597,2.6005,2.6014,2.6151,2.6134,2.6112,2.6062,2.617,2.6219,2.6239,2.5986,2.5984,2.5983,2.5983,0,0,2.531,2.5413,2.5439,2.5481,2.5565,2.5635,2.5731,2.5821,2.587,2.594,2.6022,2.6145,2.6125,2.6179,2.6194,2.6259,2.6374,2.6229,2.6231,2.6254,2.6529,2.6545,2.6567,2.637,2.6374,2.6377,2.6522,0,2.5449,2.5616,2.5637,2.5787,2.5869,2.5864,2.5948,2.6009,2.6042,2.6117,2.6154,2.6241,2.6208,2.624,2.6304,2.6346,2.643,2.6336,2.6447,2.6451,2.6428,2.6593,2.6611,2.6745,2.6542,2.6545,2.6547,0,2.5634,2.5706,2.5864,2.5935,2.5971,2.6045,2.6129,2.6201,2.6271,2.629,2.635,2.6356,2.6456,2.6401,2.6541,2.6476,2.6523,2.6551,2.6556,2.6568,2.6506,2.6609,2.6788,2.6808,2.6578,2.6575,2.6573,0,2.5733,2.587,2.5981,2.6018,2.6105,2.6157,2.6196,2.6262,2.6315,2.6389,2.6424,2.651,2.6557,2.6624,2.6653,2.6611,2.6791,2.6739,2.681,2.681,2.6849,2.6846,2.7038,2.6879,2.6879,2.6878,2.6878,0,2.5887,2.5983,2.6027,2.6095,2.6203,2.6227,2.6333,2.6371,2.6429,2.6506,2.6508,2.658,2.6615,2.6693,2.6717,2.6828,2.685,2.6869,2.6874,2.6869,2.6866,2.69,2.6892,2.6884,2.6882,2.6881,2.688,0,2.6015,2.6048,2.617,2.6241,2.6261,2.6338,2.64,2.6467,2.6498,2.6595,2.6619,2.6669,2.6761,2.6796,2.691,2.6926,2.7054,2.7052,2.703,2.7032,2.7101,2.7094,2.7322,2.7353,2.7173,2.7174,2.7176,0,2.6111,2.6185,2.6263,2.6314,2.6354,2.6435,2.6489,2.6515,2.657,2.6655,2.6712,2.6803,2.6877,2.7024,2.7071,2.7158,2.7158,2.7232,2.7171,2.7163,2.7159,2.7154,2.7162,2.7243,2.7245,2.7246,2.7248,0,2.6278,2.629,2.6365,2.6447,2.651,2.6576,2.664,2.6682,2.6718,2.678,2.6873,2.693,2.7044,2.7135,2.7224,2.7265,2.7263,2.7266,2.7287,2.7283,2.7267,2.7276,2.7061,2.7261,2.726,2.7259,2.7258,2.7257,2.6393,2.6458,2.6523,2.6607,2.6657,2.6717,2.6783,2.6822,2.6899,2.6992,2.7003,2.7103,2.7171,2.7289,2.7335,2.7414,2.7395,2.7425,2.7433,2.744,2.7445,2.7253,2.743,2.743,2.743,2.7429,2.7429,0,2.656,2.6601,2.6678,2.6766,2.6832,2.6822,2.6892,2.6949,2.7036,2.7098,2.7171,2.7277,2.7365,2.7418,2.7507,2.756,2.7561,2.7582,2.7579,2.7589,2.7457,2.743,2.758,2.758,2.758,2.758,2.758,2.758,2.6654,2.6763,2.6783,2.6917,2.6958,2.7054,2.7095,2.715,2.72,2.7318,2.739,2.7424,2.7483,2.7575,2.7656,2.7669,2.7702,2.7725,2.7737,2.7613,2.7598,2.7583,2.7557,2.7732,2.7732,2.7861,2.7863,2.7864]},{"header":{"parameterUnit":"m.s-1","parameterCategory":1,"la1":30.2991,"la2":30.254,"lo1":-89.0895,"lo2":-89.0444,"dy":0.0017,"dx":0.0017,"nx":28,"ny":28,"refTime":"2025-06-01T03:00:00:Z","depth":0,"parameterNumber":3,"parameterNumberName":"V-component_of_WINDS"},"data":[0,0,0,0,0,0,0,0,0,0,0,0,0,0,0,0,0,0,0,0,0,0,0,0,0,0,0,0,0,0,0,0,0,0,0,0,0,0,0,0,0,0,0,0,0,0,0,0,0,0,0,0,0,0,0,0,0,0,-0.5501,-0.55,0,-0.5421,-0.542,-0.5419,-0.5397,-0.5398,-0.5398,-0.5399,-0.5311,-0.5309,-0.5306,0,0,0,0,0,0,0,0,0,0,0,0,0,-0.5628,-0.5625,-0.5501,-0.55,-0.5499,-0.5421,-0.542,-0.5419,-0.5397,-0.5398,-0.5398,-0.5399,-0.5312,-0.5309,-0.5306,0,0,0,0,0,0,0,0,0,0,0,0,0,-0.5562,-0.5625,-0.5501,-0.5479,-0.5476,-0.5421,-0.542,-0.5418,-0.5397,-0.5398,-0.5398,-0.5399,-0.5313,-0.5309,-0.5305,-0.5265,0,0,-0.5292,-0.5291,0,0,0,0,0,0,0,0,-0.5566,-0.5558,-0.5483,-0.548,-0.5477,-0.542,-0.5432,-0.5367,-0.5397,-0.5427,-0.5399,-0.5399,-0.5346,-0.534,-0.5323,-0.5261,-0.5257,-0.5292,-0.529,-0.5288,-0.5287,0,0,0,0,0,0,0,-0.5571,-0.5561,-0.5469,-0.5482,-0.5478,-0.547,-0.5462,-0.542,-0.5383,-0.5424,-0.5422,-0.5414,-0.5345,-0.5327,-0.5321,-0.5256,-0.5292,-0.5289,-0.5286,-0.5284,-0.5153,-0.5152,0,0,0,0,0,0,-0.558,-0.5565,-0.5471,-0.5466,-0.5524,-0.5467,-0.5458,-0.5437,-0.5384,-0.5376,-0.5413,-0.5413,-0.5334,-0.5326,-0.5318,-0.5265,-0.5288,-0.5284,-0.5282,-0.5154,-0.5153,-0.5152,0,0,0,0,0,0,-0.5583,-0.5572,-0.5475,-0.5515,-0.5502,-0.5465,-0.5441,-0.5435,-0.5417,-0.5375,-0.5368,-0.5402,-0.5334,-0.5323,-0.5278,-0.5261,-0.5282,-0.5278,-0.5155,-0.5154,-0.5152,-0.516,0,0,0,0,0,0,-0.5587,-0.5573,-0.5559,-0.5515,-0.55,-0.5439,-0.544,-0.5433,-0.5411,-0.541,-0.5363,-0.5356,-0.5334,-0.5284,-0.5274,-0.5256,-0.5275,-0.5156,-0.5155,-0.5153,-0.5161,-0.5159,-0.5157,0,0,0,0,0,-0.5591,-0.5564,-0.5559,-0.5548,-0.5483,-0.5438,-0.5429,-0.5406,-0.541,-0.5394,-0.5367,-0.5357,-0.5265,-0.528,-0.5268,-0.5248,-0.5157,-0.5155,-0.5153,-0.5162,-0.5159,-0.5157,0,0,0,0,0,0,-0.5606,-0.5558,-0.5552,-0.551,-0.5478,-0.5434,-0.5414,-0.5404,-0.5369,-0.537,-0.534,-0.533,-0.5285,-0.5262,-0.528,-0.5205,-0.5211,-0.5206,-0.5222,-0.5219,-0.5217,-0.5223,-0.5272,0,0,0,0,0,-0.5605,-0.5575,-0.5534,-0.5501,-0.5485,-0.5452,-0.5432,-0.5417,-0.5382,-0.5368,-0.5337,-0.5302,-0.5264,-0.5241,-0.5204,-0.5158,-0.5145,-0.5138,-0.5136,-0.5135,-0.5131,-0.5101,-0.5096,-0.5144,-0.5144,-0.5144,0,0,-0.5602,-0.5572,-0.5554,-0.5503,-0.5477,-0.5443,-0.5441,-0.5407,-0.5381,-0.5362,-0.5317,-0.5293,-0.5251,-0.5204,-0.5182,-0.5184,-0.5115,-0.5132,-0.5131,-0.5128,-0.5098,-0.5094,-0.509,-0.5143,-0.5143,-0.5143,0,0,-0.5579,-0.5554,-0.5523,-0.5496,-0.5456,-0.5434,-0.5427,-0.5383,-0.5367,-0.5322,-0.5306,-0.5273,-0.5211,-0.5181,-0.5157,-0.512,-0.5108,-0.5108,-0.5098,-0.5069,-0.5065,-0.5062,-0.5046,-0.504,-0.5105,-0.5105,-0.5105,0,-0.5579,-0.5531,-0.5508,-0.5473,-0.5449,-0.5432,-0.5398,-0.5373,-0.5322,-0.5305,-0.5308,-0.5227,-0.5198,-0.5142,-0.5133,-0.5115,-0.5103,-0.5113,-0.5068,-0.5064,-0.5061,-0.5045,-0.5039,-0.5105,-0.5105,-0.5105,-0.5105,0,-0.5532,-0.5498,-0.5477,-0.5429,-0.5403,-0.5369,-0.5339,-0.5315,-0.5301,-0.5277,-0.5229,-0.5194,-0.5148,-0.5134,-0.512,-0.5075,-0.5077,-0.5075,-0.5079,-0.5057,-0.5041,-0.5035,-0.5105,-0.5105,-0.5105,-0.5105,0,0,-0.5517,-0.5456,-0.5449,-0.5425,-0.5379,-0.5351,-0.5314,-0.5271,-0.525,-0.5215,-0.5181,-0.5127,-0.5124,-0.5097,-0.508,-0.5055,-0.5023,-0.5055,-0.5053,-0.5048,-0.4967,-0.4968,-0.4962,-0.5016,-0.5015,-0.5014,-0.497,0,-0.5487,-0.5423,-0.54,-0.5347,-0.5313,-0.5294,-0.5262,-0.5228,-0.5204,-0.517,-0.5143,-0.5105,-0.5105,-0.5088,-0.5063,-0.5033,-0.5006,-0.5036,-0.4982,-0.498,-0.4991,-0.4954,-0.4956,-0.4916,-0.4964,-0.4963,-0.4962,0,-0.5443,-0.5408,-0.5352,-0.5306,-0.5291,-0.5263,-0.5219,-0.5188,-0.5148,-0.5132,-0.5101,-0.5085,-0.5042,-0.5051,-0.499,-0.5011,-0.4987,-0.4968,-0.4966,-0.4959,-0.4969,-0.4944,-0.4904,-0.4897,-0.4953,-0.4954,-0.4954,0,-0.5436,-0.5374,-0.5331,-0.5312,-0.5259,-0.5239,-0.5215,-0.5176,-0.515,-0.5112,-0.5094,-0.5051,-0.5026,-0.4992,-0.4962,-0.4972,-0.4903,-0.491,-0.4886,-0.4887,-0.4872,-0.4873,-0.4825,-0.486,-0.486,-0.486,-0.486,0,-0.5403,-0.5369,-0.5327,-0.5301,-0.526,-0.5232,-0.5192,-0.5167,-0.5131,-0.5097,-0.5078,-0.5046,-0.501,-0.4973,-0.4949,-0.4901,-0.4891,-0.4874,-0.4868,-0.4875,-0.4877,-0.4858,-0.4859,-0.4859,-0.4859,-0.4859,-0.486,0,-0.5388,-0.5359,-0.5311,-0.5263,-0.5251,-0.5222,-0.5181,-0.5153,-0.5128,-0.5085,-0.5073,-0.5033,-0.4987,-0.4955,-0.4896,-0.488,-0.4827,-0.4822,-0.4841,-0.4838,-0.4815,-0.4817,-0.4752,-0.4741,-0.4785,-0.4785,-0.4784,0,-0.5369,-0.5341,-0.5291,-0.5267,-0.5244,-0.5207,-0.518,-0.515,-0.5123,-0.5073,-0.505,-0.5004,-0.4965,-0.4893,-0.4857,-0.481,-0.4803,-0.4783,-0.4796,-0.4802,-0.4799,-0.48,-0.4796,-0.4781,-0.4781,-0.478,-0.478,0,-0.5336,-0.5323,-0.5286,-0.5243,-0.5212,-0.5177,-0.5141,-0.5123,-0.5086,-0.5055,-0.5009,-0.4979,-0.4918,-0.4871,-0.4821,-0.4794,-0.4779,-0.4777,-0.4768,-0.4774,-0.4785,-0.4776,-0.4834,-0.4778,-0.4778,-0.4778,-0.4778,-0.4779,-0.5317,-0.5291,-0.525,-0.5209,-0.5179,-0.5145,-0.5116,-0.5086,-0.5048,-0.4997,-0.4981,-0.4932,-0.4889,-0.482,-0.4792,-0.4751,-0.4752,-0.4741,-0.4737,-0.4734,-0.4733,-0.4793,-0.4742,-0.4742,-0.4742,-0.4742,-0.4742,0,-0.5282,-0.5254,-0.5217,-0.5167,-0.5134,-0.5125,-0.5083,-0.5055,-0.5013,-0.4975,-0.4936,-0.4881,-0.4834,-0.4794,-0.4744,-0.4719,-0.4711,-0.4707,-0.4707,-0.4701,-0.4737,-0.4748,-0.4714,-0.4714,-0.4714,-0.4714,-0.4714,-0.4714,-0.526,-0.5214,-0.5195,-0.5132,-0.5104,-0.5057,-0.5034,-0.5001,-0.497,-0.4909,-0.4871,-0.4845,-0.4804,-0.4751,-0.4707,-0.4696,-0.4677,-0.4674,-0.4661,-0.4695,-0.4699,-0.4702,-0.4712,-0.4671,-0.4671,-0.4628,-0.4628,-0.4627]}]]